Location: Launois
(49.6535°N, 4.5395°E)
Time: 13:16:44
(UTC+00:00)

CZ-2C R/B - Pass Details

Date: 23 May 2024
Orbit: 784 x 868 km, 98.3° (Epoch: 18 June)

Event Time Altitude Azimuth Distance (km) Brightness Sun altitude
Exits shadow 02:29:16 11° 199° (SSW) 2,268 4.4 -10.2°
Maximum altitude 02:33:48 36° 264° (W) 1,230 3.2 -9.7°
Drops below altitude 10° 02:38:34 10° 331° (NNW) 2,360 5.3 -9.2°
Sets 02:41:06 0° 340° (NNW) 3,301 6.2 -8.9°
